Weather History for KORG - February, 2014

Change the Weather History Date:

Wednesday, February 19, 2014

  Actual Average Record
Temperature  
Mean Temperature 67 °F -  
Max Temperature 73 °F 65 °F 78 °F (1984)
Min Temperature 61 °F 42 °F 25 °F (1978)
Cooling Degree Days 2    
Growing Degree Days 17 (Base 50)    
Moisture  
Dew Point 64 °F    
Average Humidity 92    
Maximum Humidity 98    
Minimum Humidity 69    
Precipitation  
Precipitation 0.00 in - - ()
Sea Level Pressure  
Sea Level Pressure 29.98 in    
Wind  
Wind Speed 7 mph (SSE)    
Max Wind Speed 15 mph    
Max Gust Speed 20 mph    
Visibility 4 miles    
Events Fog , Rain    
Averages and records for this station are not official NWS values.
T = Trace of Precipitation, MM = Missing Value Source: NWS Daily Summary

Daily Weather History Graph

Daily Weather History Graph

Search for Another Location

Airport or City:

Trip Planner

Search our weather history database for the weather conditions in past years. The results will help you decide how hot, cold, wet, or windy it might be!

Date:

Astronomy

Feb. 19, 2014 Rise Set
Actual Time 6:51 AM CST 6:07 PM CST
Civil Twilight 6:27 AM CST 6:31 PM CST
Nautical Twilight 5:59 AM CST 6:59 PM CST
Astronomical Twilight 5:31 AM CST 7:27 PM CST
Moon 10:36 PM CST (2/19) 9:19 AM CST (2/19)
Length of Visible Light 12h 04m
Length of Day
11h 15m
Waning Gibbous, 79% of the Moon is Illuminated
Feb 19
Waning Gibbous
Feb 22
Last Quarter
Mar 1
New
Mar 8
First Quarter
Mar 16
Full

Hourly Weather History & Observations

Time (CST) Temp. Dew Point Humidity Pressure Visibility Wind Dir Wind Speed Gust Speed Precip Events Conditions
12:15 AM 62.2 °F 61.7 °F 98% 30.03 in 0.5 mi South 6.9 mph - N/A   Light Drizzle
12:35 AM 62.2 °F 61.7 °F 98% 30.01 in 0.5 mi SSE 9.2 mph - N/A   Drizzle
12:55 AM 61.9 °F 61.3 °F 98% 30.01 in 0.5 mi South 11.5 mph 17.3 mph N/A Rain Light Rain
1:15 AM 62.1 °F 61.3 °F 97% 30.01 in 0.5 mi South 9.2 mph - N/A Rain Rain
1:35 AM 62.1 °F 61.3 °F 97% 30.02 in 0.5 mi South 9.2 mph - N/A Fog Fog
1:55 AM 62.1 °F 61.3 °F 97% 30.02 in 0.5 mi South 5.8 mph - N/A Fog Fog
2:15 AM 62.6 °F 61.7 °F 97% 30.02 in 0.5 mi South 4.6 mph - N/A Fog Fog
2:35 AM 62.8 °F 62.1 °F 97% 30.02 in 0.2 mi SSW 3.5 mph - N/A Fog Fog
2:55 AM 63.0 °F 62.2 °F 97% 30.01 in 0.2 mi South 3.5 mph - N/A Fog Fog
3:15 AM 63.1 °F 62.6 °F 98% 30.01 in 0.5 mi Calm Calm - N/A Fog Fog
3:35 AM 63.1 °F 62.6 °F 98% 30.01 in 0.5 mi SSE 3.5 mph - N/A Fog Fog
3:55 AM 63.3 °F 62.6 °F 97% 30.01 in 0.5 mi South 3.5 mph - N/A Fog Fog
4:15 AM 63.5 °F 62.6 °F 97% 30.01 in 0.5 mi SSE 3.5 mph - N/A Fog Fog
4:35 AM 63.1 °F 62.6 °F 98% 30.01 in 0.5 mi SE 3.5 mph - N/A Fog Fog
4:55 AM 63.0 °F 62.4 °F 98% 30.02 in 0.2 mi Calm Calm - N/A Fog Fog
5:15 AM 62.8 °F 62.1 °F 97% 30.02 in 0.5 mi Calm Calm - N/A Fog Fog
5:35 AM 62.6 °F 61.9 °F 97% 30.02 in 0.2 mi SE 3.5 mph - N/A Fog Fog
5:55 AM 62.6 °F 61.9 °F 97% 30.02 in 0.2 mi SSE 3.5 mph - N/A Fog Fog
6:15 AM 62.6 °F 61.9 °F 97% 30.02 in 0.2 mi SSE 3.5 mph - N/A Fog Fog
6:35 AM 62.6 °F 61.9 °F 97% 30.02 in 0.2 mi Calm Calm - N/A Fog Fog
6:55 AM 62.6 °F 61.9 °F 97% 30.03 in 0.2 mi Calm Calm - N/A Fog Fog
7:15 AM 62.8 °F 62.1 °F 97% 30.03 in 0.2 mi Calm Calm - N/A Fog Fog
7:35 AM 63.0 °F 62.2 °F 97% 30.03 in 0.2 mi Calm Calm - N/A Fog Fog
7:55 AM 63.5 °F 62.6 °F 97% 30.03 in 0.2 mi SE 3.5 mph - N/A Fog Fog
8:15 AM 63.9 °F 63.1 °F 97% 30.03 in 0.2 mi SSE 3.5 mph - N/A Fog Fog
8:35 AM 64.4 °F 63.5 °F 97% 30.03 in 0.2 mi SSE 5.8 mph - N/A Fog Fog
8:55 AM 64.6 °F 63.9 °F 98% 30.04 in 0.2 mi SSE 4.6 mph - N/A Fog Fog
9:15 AM 64.8 °F 64.0 °F 98% 30.04 in 0.2 mi SSE 4.6 mph - N/A Fog Fog
9:35 AM 66.0 °F 65.5 °F 98% 30.04 in 0.5 mi South 5.8 mph - N/A Fog Fog
9:55 AM 66.2 °F 65.3 °F 97% 30.04 in 0.5 mi South 9.2 mph - N/A Fog Fog
10:15 AM 66.4 °F 65.7 °F 98% 30.04 in 4.0 mi South 10.4 mph - N/A   Overcast
10:35 AM 67.3 °F 66.6 °F 98% 30.03 in 7.0 mi SSE 8.1 mph - N/A   Overcast
10:55 AM 67.3 °F 66.6 °F 98% 30.03 in 7.0 mi SSE 11.5 mph - N/A   Overcast
11:15 AM 67.3 °F 66.6 °F 98% 30.03 in 10.0 mi SSE 10.4 mph - N/A   Overcast
11:35 AM 67.5 °F 66.7 °F 98% 30.02 in 10.0 mi SSE 12.7 mph 18.4 mph N/A   Overcast
11:55 AM 68.7 °F 68.0 °F 98% 30.01 in 10.0 mi South 13.8 mph 17.3 mph N/A   Overcast
12:15 PM 68.0 °F 67.3 °F 98% 30.01 in 10.0 mi South 11.5 mph 16.1 mph N/A   Overcast
12:35 PM 69.3 °F 65.5 °F 88% 30.00 in 10.0 mi South 13.8 mph 18.4 mph N/A   Overcast
12:55 PM 71.4 °F 65.1 °F 80% 29.99 in 10.0 mi South 11.5 mph 18.4 mph N/A   Overcast
1:15 PM 71.8 °F 64.4 °F 77% 29.98 in 10.0 mi South 11.5 mph - N/A   Mostly Cloudy
1:35 PM 72.7 °F 63.7 °F 73% 29.97 in 10.0 mi SSE 11.5 mph 17.3 mph N/A   Scattered Clouds
1:55 PM 72.7 °F 63.3 °F 72% 29.97 in 10.0 mi South 13.8 mph 19.6 mph N/A   Scattered Clouds
2:15 PM 73.4 °F 63.1 °F 70% 29.96 in 10.0 mi South 12.7 mph 18.4 mph N/A   Scattered Clouds
2:35 PM 73.8 °F 63.1 °F 69% 29.95 in 10.0 mi SSE 15.0 mph - N/A   Clear
2:55 PM 72.9 °F 63.1 °F 71% 29.95 in 10.0 mi South 12.7 mph - N/A   Clear
3:15 PM 73.4 °F 63.5 °F 71% 29.94 in 10.0 mi South 15.0 mph 18.4 mph N/A   Clear
3:35 PM 73.4 °F 63.5 °F 71% 29.94 in 10.0 mi South 13.8 mph 19.6 mph N/A   Clear
3:55 PM 72.5 °F 63.3 °F 73% 29.93 in 10.0 mi SSE 15.0 mph 19.6 mph N/A   Clear
4:15 PM 72.9 °F 63.0 °F 71% 29.93 in 10.0 mi SSE 12.7 mph 19.6 mph N/A   Clear
4:35 PM 72.3 °F 62.8 °F 72% 29.92 in 10.0 mi South 12.7 mph 19.6 mph N/A   Clear
4:55 PM 71.8 °F 62.8 °F 73% 29.92 in 10.0 mi SSE 13.8 mph 17.3 mph N/A   Clear
5:15 PM 70.9 °F 62.8 °F 75% 29.92 in 10.0 mi South 10.4 mph 19.6 mph N/A   Clear
5:35 PM 69.8 °F 63.1 °F 79% 29.92 in 10.0 mi SSE 12.7 mph 17.3 mph N/A   Clear
5:55 PM 68.5 °F 63.5 °F 84% 29.92 in 10.0 mi SSE 10.4 mph - N/A   Clear
6:15 PM 67.1 °F 63.9 °F 89% 29.92 in 10.0 mi SSE 10.4 mph - N/A   Clear
6:35 PM 67.1 °F 64.8 °F 92% 29.92 in 10.0 mi SSE 10.4 mph - N/A   Mostly Cloudy
6:55 PM 66.7 °F 64.9 °F 94% 29.92 in 7.0 mi SSE 10.4 mph - N/A   Overcast
7:15 PM 65.7 °F 64.4 °F 96% 29.91 in 5.0 mi SSE 10.4 mph - N/A   Overcast
7:35 PM 65.5 °F 64.0 °F 95% 29.91 in 7.0 mi SSE 11.5 mph - N/A   Overcast
7:55 PM 65.1 °F 63.7 °F 95% 29.91 in 4.0 mi SE 8.1 mph - N/A   Overcast
8:15 PM 64.9 °F 64.0 °F 97% 29.91 in 2.0 mi SSE 9.2 mph 16.1 mph N/A   Overcast
8:35 PM 65.3 °F 64.4 °F 97% 29.91 in 3.0 mi SE 8.1 mph - N/A   Overcast
8:55 PM 64.8 °F 63.9 °F 97% 29.91 in 2.5 mi SE 8.1 mph - N/A   Overcast
9:15 PM 64.6 °F 63.7 °F 97% 29.91 in 1.2 mi SSE 9.2 mph - N/A   Overcast
9:35 PM 64.6 °F 63.9 °F 98% 29.91 in 1.0 mi SE 11.5 mph 16.1 mph N/A   Overcast
9:55 PM 64.9 °F 64.4 °F 98% 29.91 in 1.0 mi SSE 10.4 mph 17.3 mph N/A   Overcast
10:55 PM 64.9 °F 64.4 °F 98% 29.90 in 1.0 mi SSE 11.5 mph 17.3 mph N/A   Overcast
11:15 PM 65.3 °F 64.4 °F 97% 29.89 in 0.8 mi SSE 11.5 mph 17.3 mph N/A Rain Light Rain
11:35 PM 65.5 °F 64.8 °F 98% 29.89 in 1.5 mi SSE 9.2 mph 17.3 mph N/A   Overcast
11:55 PM 65.5 °F 64.8 °F 98% 29.89 in 1.5 mi SSE 10.4 mph - N/A   Overcast